Starlink 33815

operational
NORAD ID: 63497 Int'l Des: 2025-071 Owner: SPXS Country: US Constellation: starlink
LEOCIRCULAR

Über Starlink 33815

Beschreibung wird geladen...

Live-Position

3D-Globus wird geladen...

Nächste Überflüge

Höhenverlauf

Altitude vs Time

uPlot chart will show altitude changes over time

Zweizeiliger Elementsatz

1 63497U 25071E 25257.38370909 .00030503 00000-0 10370-2 0 9998
2 63497 53.1579 239.0634 0001172 99.1926 260.9207 15.30223137 25779
Epoch: 14. Sept. 2025 • Age: 25 hours

Aktueller Status

Höhe 491.7 km
Geschwindigkeit 7.62 km/s
Subsatellitenpunkt -47.15°S, 33.74°W
Startdatum 7. Apr. 2025
Alter 0.4 years
Typ internet

Technische Details

Klassifizierung Payload
Masse 575.00 kg
Trockenmasse 530.00 kg
Gesamtmasse 575.00 kg
Länge 0.30 m
Durchmesser 4.10 m
Spannweite 29.00 m
Form Box + pan
Hersteller SPXS
Bus-Typ Starlink V2MO
Phasenstatus In Orbit
Besitzer/Staat SPXS/US

Große Konstellationen

Loading constellations...